Content
SEND FEEDBACK

Daily
Averages
Monthly
Summary
United States of America

CHELSEA, MICHIGAN


Home > North America > United States > Michigan
Elevation: 900 feet     Latitude: 42 19N     Longitude: 084 01W

WEATHER
 
SELECT A DAY
Number of Records: 206,347;   Date Range: 1/1/95 - 10/1/14
 
SHARE

PRINT THIS DATA

[ ← Previous Day ]
WEATHER ALMANAC - APRIL 3, 2013
[ Next Day → ]
[ °C ]   °F
Weather ElementAverageHighLow
Temperature32.3 °F43 °F (4:53 pm)19.9 °F (4:53 am)
Dewpoint11.9 °F17.1 °F (5:53 am)8.1 °F (7:53 pm)
Humidity46.1 %74 % (4:53 am)25 % (4:53 pm)
Barometer30.37 in30.44 in (12:53 pm)30.27 in (1:53 am)
Wind Speed6.4 mph13.8 mph (10:53 am)
Wind Gust23 mph (11:53 am)
Weather ElementAverage
Visibility10 mi
Wind DirectionWSW (235.7 °)

Weather ElementTotal
Precipitation---
Heating Degree Days33.6 (Base 65)
Averaged from 23 records on April 3, 2013
WEATHER CONDITIONS BREAKOUT
WIND DIRECTION BREAKOUT
WEATHER BY HOUR - APRIL 3, 2013
[ °C ]   °F
Local TimeTemperatureDewpointHumidityBarometerVisibilityWind DirectionWind SpeedGust SpeedPrecipitationEventsConditions
1:53 AM26.1 °F12.9 °F58 %30.27 in10.0 miNW (310°)4.6 mphClear
2:53 AM23.0 °F12.9 °F65 %30.28 in10.0 miWNW (290°)4.6 mphClear
3:53 AM21.9 °F12.9 °F68 %30.28 in10.0 miWNW (290°)5.8 mphClear
4:53 AM19.9 °F12.9 °F74 %30.29 in10.0 miWest (260°)5.8 mphMostly Cloudy
5:53 AM25.0 °F17.1 °F72 %30.31 in10.0 miWest (260°)8.1 mphOvercast
6:53 AM25.0 °F15.1 °F66 %30.33 in10.0 miWNW (300°)6.9 mphClear
7:53 AM24.1 °F16.0 °F71 %30.36 in10.0 miWNW (290°)5.8 mphClear
8:53 AM28.9 °F14.0 °F54 %30.38 in10.0 miNorth (350°)9.2 mphClear
9:53 AM32.0 °F10.9 °F42 %30.39 in10.0 miNorth (350°)11.5 mph20.7 mphClear
10:53 AM34.0 °F10.0 °F37 %30.42 in10.0 miNorth (350°)13.8 mph21.9 mphClear
11:53 AM36.0 °F10.9 °F36 %30.43 in10.0 miNorth (360°)11.5 mph23.0 mphClear
12:53 PM37.9 °F10.9 °F33 %30.44 in10.0 miNorth (350°)13.8 mph18.4 mphClear
1:53 PM39.0 °F10.0 °F30 %30.42 in10.0 miNorth (360°)12.7 mph21.9 mphClear
2:53 PM41.0 °F10.9 °F29 %30.41 in10.0 miNNW (330°)10.4 mph16.1 mphClear
3:53 PM42.1 °F10.0 °F27 %30.41 in10.0 miNorth (350°)6.9 mphClear
4:53 PM43.0 °F9.0 °F25 %30.41 in10.0 miVariable3.5 mphClear
5:53 PM43.0 °F9.0 °F25 %30.41 in10.0 miCalmClear
6:53 PM41.0 °F9.0 °F27 %30.41 in10.0 miSW (230°)3.5 mphClear
7:53 PM39.9 °F8.1 °F27 %30.39 in10.0 miCalmClear
8:53 PM30.9 °F9.0 °F40 %30.38 in10.0 miCalmClear
9:53 PM32.0 °F12.9 °F45 %30.40 in10.0 miSSW (200°)4.6 mphClear
10:53 PM30.0 °F14.0 °F51 %30.39 in10.0 miSouth (190°)3.5 mphClear
11:53 PM28.0 °F15.1 °F58 %30.38 in10.0 miCalmClear
Hourly data recorded from KARB, located miles away from Chelsea, Michigan







STORIES FROM OUR PARTNERS